Regional Weather Roundup
Issued by NWS

Home | Current Version | Previous Version | Text Only | Print | Product List | Glossary Off
Versions: 1 2 3 4 5 6 7 8 9 10 11 12 13 14 15 16 17 18 19 20 21 22 23 24 25 26 27 28 29 30 31 32 33 34 35 36 37 38 39 40 41 42 43 44 45 46 47 48 49 50

147
ASUS43 KIND 261709
RWRIN

WEATHER ROUNDUP FOR INDIANA
NATIONAL WEATHER SERVICE INDIANAPOLIS IN
100 PM EDT WED APR 26 2017

NOTE: "FAIR" INDICATES FEW OR NO CLOUDS BELOW 12,000 FEET WITH NO
SIGNIFICANT WEATHER AND/OR OBSTRUCTIONS TO VISIBILITY.

* - STATION DOES NOT REPORT WEATHER SUCH AS PRECIPITATION OR FOG.

+ - STATION NOT QUALITY CONTROLLED BY THE NATIONAL WEATHER SERVICE.
    USE DATA WITH CAUTION...ESPECIALLY DEWPOINT AND RELATIVE
    HUMIDITY OBSERVATIONS.

INZ001>003-010>013-019-020-261800-
NORTHWEST INDIANA

CITY           SKY/WX    TMP DP  RH WIND       PRES   REMARKS
GARY /AIRPORT/ PTSUNNY   77  52  41 SW17G31   29.47R
KNOX *+        SUNNY     79  32  18 S25       29.48R
LA PORTE +     MOSUNNY   78  59  52 S18G26    29.49R
MICHIGAN CITY+ PTSUNNY   77  59  53 S17G25    29.47R
MONTICELLO +   SUNNY     78  59  51 S16G23    29.50R
RENSSELAER +   MOSUNNY   82  46  28 SW29G39   29.49S
VALPARAISO     PTSUNNY   79  59  50 S20G33    29.48R

$$

LMZ046-743>745-261800-
SOUTHERN LAKE MICHIGAN

STATION/POSITION TIME  TEMP    WIND        PRES    WAVE
                       AIR SEA DIR/SP/G            HT
                 (UTC) (F)     (DEG/KT/KT) (MB)    (FT)
BURNS HARBOR     1640   74     210/ 21/ 29  998.0R
MICHIGAN CITY    1640   75     160/ 19/ 22   N/A
5NW MICH CITY    1700   67 49                N/A     2

$$

INZ004-005-014>016-021>024-261800-
NORTH CENTRAL INDIANA

CITY           SKY/WX    TMP DP  RH WIND       PRES   REMARKS
ELKHART        SUNNY     77  59  53 S9        29.49S SMOKE
GOSHEN         SUNNY     77  58  51 S24G33    29.49F
LOGANSPORT +   SUNNY     77  59  53 S24G30    29.52S
PERU/GRISSOM   SUNNY     78  62  57 S21G30    29.51S
ROCHESTER +    SUNNY     79  59  50 S18G26    29.52R
SOUTH BEND     SUNNY     76  60  57 S20G25    29.48S
WARSAW +       SUNNY     77  59  53 S12G20    29.51F

$$

INZ006>009-017-018-025>027-261800-
NORTHEAST INDIANA

CITY           SKY/WX    TMP DP  RH WIND       PRES   REMARKS
ANGOLA *+      SUNNY     75  70  83 S23       29.54F
AUBURN +       SUNNY     77  55  47 S9G17     29.56F
FORT WAYNE     MOSUNNY   80  60  50 S23G30    29.56F
HUNTINGTON +   MOSUNNY  N/A N/A N/A S16G23    29.54F
KENDALLVILLE + SUNNY     76  60  57 S20G29    29.53F

$$

INZ028-029-035-036-043>045-051>053-261800-
WEST CENTRAL INDIANA

CITY           SKY/WX    TMP DP  RH WIND       PRES   REMARKS
CRAWFORDSVL +  SUNNY     78  59  51 S17       29.54S
GREENCASTLE +  SUNNY    N/A N/A N/A S15G21    29.56R
LAFAYETTE      SUNNY     79  59  50 SW14G25   29.51R
TERRE HAUTE    SUNNY     79  59  50 S15G24    29.55S

$$

INZ030>032-037>040-046>048-054>057-064-065-261800-
CENTRAL INDIANA

CITY           SKY/WX    TMP DP  RH WIND       PRES   REMARKS
CP ATTERBURY + SUNNY     77  61  57 S15G24    29.60S
COLUMBUS       SUNNY     75  59  57 S17       29.61F
FRANKFORT +    PTSUNNY   83  62  49 S16G24    29.55R
GREENWOOD *+   SUNNY     78  60  53 S18G24    29.58F
INDIANAPOLIS   MOSUNNY   78  62  57 S20G25    29.55F
-EAGLE CREEK   SUNNY     78  60  53 SE16G26   29.55F
KOKOMO +       SUNNY     79  61  53 S25       29.54F
MARION +       SUNNY     77  59  53 S25G32    29.55F
MT COMFORT *+  SUNNY     77  59  53 S20G25    29.57F
SHELBYVILLE    SUNNY     79  59  50 S20G28    29.59F
ZIONSVILLE +   SUNNY     76  60  56 S18G28    29.55F

$$

INZ033-034-041-042-049-050-058-059-261800-
EAST CENTRAL INDIANA

CITY           SKY/WX    TMP DP  RH WIND       PRES   REMARKS
MUNCIE         SUNNY     79  58  48 S21G31    29.57F
RICHMOND +     SUNNY     75  57  53 S21       29.66S

$$

INZ060-061-067>069-081>083-085>088-261800-
SOUTHWEST INDIANA

CITY           SKY/WX    TMP DP  RH WIND       PRES   REMARKS
EVANSVILLE     SUNNY     81  63  54 S14G21    29.60F
HUNTINGBURG *+ SUNNY     77  61  57 S15G22    29.61F
WASHINGTON +   SUNNY     79  56  45 S21G28    29.57S

$$

INZ062-063-066-070>080-084-089>092-261800-
SOUTH CENTRAL AND SOUTHEAST INDIANA

CITY           SKY/WX    TMP DP  RH WIND       PRES   REMARKS
BEDFORD +      SUNNY     77  59  53 S16G22    29.60F
BLOOMINGTON    SUNNY     78  61  55 S13G24    29.58S
MADISON *+     SUNNY     77  59  53 S13       29.67F
NORTH VERNON + MOSUNNY   75  61  60 S12G17    29.63F
SEYMOUR +      SUNNY     81  61  50 S17G23    29.61F

$$





USA.gov is the U.S. government's official web portal to all federal, state and local government web resources and services.